Location: Rounton
(54.4000°N, 1.3500°W)
Time: 15:31:07
(UTC+01:00)

S-56A Canister/Altair - Pass Details

Date: 17 September 2024
Orbit: 636 x 2487 km, 38.9° (Epoch: 02 October)

Event Time Altitude Azimuth Distance (km) Brightness Sun altitude
Rises 19:22:06 0° 215° (SW) 3,196 11.2 -1.8°
Reaches altitude 10° 19:25:09 10° 194° (SSW) 2,470 10.3 -2.2°
Maximum altitude 19:28:42 17° 156° (SSE) 2,295 9.7 -2.7°
Drops below altitude 10° 19:32:58 10° 120° (ESE) 3,097 10.0 -3.3°
Enters shadow 19:35:48 - 107° (ESE) 3,921 10.5 -3.7°
Sets 19:37:32 0° 102° (ESE) 4,464 - -4.0°
